Weather observations for the past three days for
Buffalo, Buffalo Municipal Airport
Imperial (Metric)
Date Time (cdt) Wind (mph) Vis. (mi.) Weather Sky Cond. Temperature (ºF) Relative Humidity Wind Chill (°F) Heat Index (°F) Pressure Precipitation (in)
Air Dwpt 6 hour altimeter (in) sea level (mb) 1 hr 3 hr 6 hr
Max. Min.
20 13:35 SW 5 10.00 A Few Clouds FEW035 FEW041 80.6 66.2 62% 83 30.1 0.0
20 13:15 Vrbl 5 10.00 Mostly Cloudy SCT036 BKN055 BKN075 80.6 66.2 62% 83 30.1 0.0
20 12:55 Calm 10.00 Mostly Cloudy SCT032 BKN055 BKN065 78.8 64.4 61% 81 30.11 0.0
20 12:35 S 6 10.00 Mostly Cloudy SCT032 BKN038 78.8 66.2 65% 81 30.11 0.0
20 12:15 Vrbl 3 10.00 Mostly Cloudy SCT029 BKN038 78.8 66.2 65% 81 30.11 0.0
20 11:55 Calm 10.00 A Few Clouds FEW036 77 64.4 65% 79 30.11 0.0
20 11:35 Calm 10.00 A Few Clouds FEW029 78.8 66.2 65% 81 30.11 0.0
20 11:15 Calm 10.00 A Few Clouds FEW028 77 66.2 69% 79 30.1 0.0
20 10:55 Calm 10.00 A Few Clouds FEW050 77 64.4 65% 79 30.11 0.0
20 10:35 Calm 10.00 Fair CLR 77 66.2 69% 79 30.11 0.0
20 10:15 Vrbl 5 10.00 Fair CLR 75.2 66.2 74% 77 30.11 0.0
20 09:55 NE 5 10.00 Fair CLR 75.2 66.2 74% 77 30.11 0.0
20 09:35 NE 3 10.00 Fair CLR 73.4 66.2 78% 30.11 0.0
20 09:15 NE 3 10.00 Fair CLR 73.4 66.2 78% 30.11 0.0
20 08:55 Vrbl 3 10.00 Fair CLR 71.6 68 88% 30.11 0.0
20 08:35 Calm 10.00 Fair CLR 71.6 66.2 83% 30.11 0.0
20 08:15 Calm 10.00 Fair CLR 71.6 68 88% 30.11 0.0
20 07:55 Calm 10.00 Fair CLR 69.8 68 94% 30.11 0.0
20 07:35 Calm 10.00 Partly Cloudy SCT040 SCT090 68 68 100% 30.11 0.0
20 07:15 Calm 10.00 Overcast OVC039 66.2 66.2 100% 30.1 0.0
20 06:55 Calm 10.00 Mostly Cloudy BKN038 64.4 64.4 100% 30.1 0.0
20 06:35 Calm 10.00 Fair CLR 64.4 64.4 100% 30.1 0.0
20 06:15 Calm 10.00 Fair CLR 64.4 64.4 100% 30.09 0.0
20 05:55 Calm 10.00 Partly Cloudy SCT038 64.4 64.4 100% 30.09 0.0
20 05:35 Calm 10.00 Overcast OVC038 64.4 64.4 100% 30.08 0.0
20 05:15 Calm 10.00 Overcast BKN038 OVC080 66.2 64.4 94% 30.08 0.0
20 04:55 Calm 10.00 Overcast FEW044 OVC080 66.2 64.4 94% 30.08 0.0
20 04:35 Calm 10.00 Overcast FEW036 FEW044 OVC075 66.2 64.4 94% 30.08 0.0
20 04:15 Calm 10.00 Overcast SCT060 OVC075 66.2 66.2 100% 30.07 0.0
20 03:55 Calm 10.00 Overcast OVC060 66.2 66.2 100% 30.07 0.0
20 03:35 Calm 10.00 Overcast FEW042 OVC060 66.2 66.2 100% 30.06 0.0
20 03:15 Calm 10.00 Overcast FEW042 OVC055 66.2 66.2 100% 30.07 0.0
20 02:55 Calm 10.00 Overcast BKN050 OVC055 66.2 66.2 100% 30.07 0.0
20 02:35 Calm 10.00 Overcast BKN047 OVC050 64.4 64.4 100% 30.06 0.0
20 02:15 Calm 10.00 Overcast SCT046 OVC055 66.2 64.4 94% 30.06 0.0
20 01:55 Calm 10.00 Overcast BKN050 OVC055 66.2 66.2 100% 30.06 0.0
20 01:35 Calm 10.00 Overcast FEW034 FEW041 OVC050 68 66.2 94% 30.06 0.0
20 01:15 Calm 10.00 Overcast OVC048 66.2 66.2 100% 30.07 0.0
20 00:55 Calm 10.00 Overcast OVC044 66.2 66.2 100% 30.07 0.0
20 00:35 Calm 10.00 Overcast OVC044 66.2 66.2 100% 30.07 0.0
20 00:15 Calm 10.00 Overcast SCT034 OVC043 66.2 66.2 100% 30.07 0.0
19 23:55 Calm 10.00 Overcast BKN039 BKN045 OVC060 66.2 66.2 100% 30.07 0.0
19 23:35 E 5 10.00 Overcast SCT040 OVC060 68 64.4 88% 30.07 0.0
19 23:15 Calm 10.00 Overcast FEW039 OVC060 69.8 62.6 78% 30.07 0.0
19 22:55 S 3 10.00 Overcast FEW042 SCT048 OVC055 71.6 62.6 73% 30.07 0.0
19 22:35 Calm 10.00 Overcast OVC042 71.6 62.6 73% 30.08 0.0
19 22:15 Calm 10.00 Overcast OVC042 71.6 62.6 73% 30.08 0.0
19 21:55 Calm 10.00 Overcast OVC042 71.6 62.6 73% 30.07 0.0
19 21:35 Calm 10.00 Overcast BKN041 OVC065 73.4 60.8 65% 30.07 0.0
19 21:15 S 6 10.00 Overcast FEW042 OVC065 73.4 60.8 65% 30.06 0.0
19 20:55 S 6 10.00 Mostly Cloudy FEW043 BKN060 73.4 60.8 65% 30.06 0.0
19 20:35 S 5 10.00 Overcast SCT047 OVC055 75.2 62.6 65% 77 30.05 0.0
19 20:15 Calm 10.00 Overcast BKN048 OVC055 75.2 62.6 65% 77 30.05 0.0
19 19:55 SW 6 10.00 Overcast BKN048 OVC070 75.2 60.8 61% 77 30.05 0.0
19 19:35 SW 8 10.00 Overcast FEW047 BKN065 OVC080 77 60.8 57% 79 30.05 0.0
19 19:15 S 8 10.00 Overcast BKN070 OVC080 77 62.6 61% 79 30.05 0.0
19 18:55 S 5 10.00 Overcast OVC070 77 62.6 61% 79 30.05 0.0
19 18:35 S 6 10.00 Mostly Cloudy BKN070 BKN080 77 62.6 61% 79 30.05 0.0
19 18:15 SW 7 G 13 10.00 Mostly Cloudy BKN055 BKN075 77 62.6 61% 79 30.06 0.0
19 17:55 S 6 10.00 Overcast OVC050 75.2 64.4 69% 77 30.07 0.0
19 17:35 SW 7 10.00 Overcast OVC050 77 62.6 61% 79 30.07 0.0
19 17:15 SW 7 10.00 Overcast OVC050 77 62.6 61% 79 30.07 0.0
19 16:55 S 6 10.00 Overcast OVC050 77 62.6 61% 79 30.06 0.0
19 16:35 S 8 10.00 Mostly Cloudy BKN055 BKN065 78.8 62.6 58% 80 30.06 0.0
19 16:15 S 9 10.00 Overcast FEW048 BKN060 OVC065 78.8 62.6 58% 80 30.06 0.0
19 15:55 S 8 10.00 Overcast FEW048 BKN060 OVC085 78.8 62.6 58% 80 30.06 0.0
19 15:35 S 9 10.00 Mostly Cloudy SCT047 BKN060 BKN070 78.8 60.8 54% 80 30.06 0.0
19 15:15 S 9 10.00 Mostly Cloudy SCT060 BKN070 78.8 60.8 54% 80 30.07 0.0
19 14:55 S 7 G 13 10.00 Overcast BKN060 OVC070 78.8 60.8 54% 80 30.07 0.0
19 14:35 S 10 10.00 Partly Cloudy SCT060 78.8 60.8 54% 80 30.07 0.0
19 14:15 S 13 10.00 Fair CLR 80.6 60.8 51% 81 30.07 0.0
19 13:55 SW 7 G 14 10.00 A Few Clouds FEW045 FEW050 80.6 60.8 51% 81 30.08 0.0
19 13:35 Vrbl 7 G 14 10.00 Partly Cloudy SCT045 SCT050 78.8 60.8 54% 80 30.08 0.0
19 13:15 Vrbl 7 G 13 10.00 A Few Clouds FEW050 78.8 60.8 54% 80 30.09 0.0
19 12:55 S 7 G 14 10.00 Fair CLR 78.8 60.8 54% 80 30.1 0.0
19 12:35 S 7 G 14 10.00 A Few Clouds FEW055 78.8 60.8 54% 80 30.11 0.0
19 12:15 S 8 G 14 10.00 A Few Clouds FEW055 78.8 60.8 54% 80 30.11 0.0
19 11:55 SW 9 10.00 Fair CLR 77 59 54% 79 30.11 0.0
19 11:35 S 9 10.00 Fair CLR 77 59 54% 79 30.11 0.0
19 11:15 SW 10 10.00 Partly Cloudy SCT065 75.2 59 57% 78 30.11 0.0
19 10:55 S 8 G 14 10.00 Mostly Cloudy BKN060 73.4 59 61% 30.12 0.0
19 10:35 S 9 G 17 10.00 Partly Cloudy SCT060 73.4 59 61% 30.12 0.0
19 10:15 S 10 10.00 Fair CLR 73.4 59 61% 30.12 0.0
19 09:55 SW 9 G 17 10.00 Fair CLR 73.4 59 61% 30.12 0.0
19 09:35 S 9 10.00 Fair CLR 71.6 59 65% 30.13 0.0
19 09:15 S 7 G 13 10.00 Fair CLR 71.6 59 65% 30.14 0.0
19 08:55 S 8 10.00 Fair CLR 69.8 59 69% 30.14 0.0
19 08:35 S 6 10.00 Fair CLR 68 59 73% 30.14 0.0
19 08:15 SW 7 10.00 Fair CLR 66.2 59 78% 30.14 0.0
19 07:55 S 7 10.00 Fair CLR 66.2 59 78% 30.14 0.0
19 07:35 SW 7 10.00 Fair CLR 64.4 59 83% 30.14 0.0
19 07:15 S 5 10.00 Fair CLR 62.6 59 88% 30.14 0.0
19 06:55 Calm 10.00 Fair CLR 60.8 59 94% 30.13 0.0
19 06:35 S 3 10.00 Fair CLR 60.8 59 94% 30.13 0.0
19 06:15 Calm 10.00 Fair CLR 60.8 57.2 88% 30.14 0.0
19 05:55 Calm 10.00 Fair CLR 60.8 57.2 88% 30.13 0.0
19 05:35 S 3 10.00 Partly Cloudy FEW034 FEW042 SCT050 60.8 57.2 88% 30.13 0.0
19 05:15 Calm 10.00 Overcast SCT034 BKN043 OVC120 60.8 57.2 88% 30.13 0.0
19 04:55 S 3 10.00 Mostly Cloudy FEW029 SCT046 BKN055 60.8 57.2 88% 30.13 0.0
19 04:35 Calm 10.00 Overcast FEW033 BKN060 OVC120 60.8 59 94% 30.13 0.0
19 04:15 Calm 10.00 Mostly Cloudy FEW028 SCT036 BKN060 60.8 57.2 88% 30.13 0.0
19 03:55 Calm 10.00 Overcast FEW026 SCT031 OVC120 59 59 100% 30.13 0.0
19 03:35 Calm 10.00 Overcast FEW029 SCT043 OVC120 59 59 100% 30.13 0.0
19 03:15 Calm 10.00 Overcast FEW030 SCT044 OVC120 59 59 100% 30.13 0.0
19 02:55 Calm 10.00 Overcast FEW032 SCT038 OVC120 60.8 59 94% 30.13 0.0
19 02:35 Calm 10.00 Mostly Cloudy FEW033 BKN040 BKN045 60.8 60.8 100% 30.13 0.0
19 02:15 Calm 10.00 Mostly Cloudy FEW033 SCT042 BKN120 60.8 60.8 100% 30.14 0.0
19 01:55 Calm 10.00 Mostly Cloudy FEW040 SCT049 BKN120 60.8 60.8 100% 30.13 0.0
19 01:35 Calm 10.00 Mostly Cloudy FEW050 BKN120 60.8 60.8 100% 30.13 0.0
19 01:15 Calm 10.00 Mostly Cloudy BKN120 62.6 60.8 94% 30.13 0.0
19 00:55 Calm 10.00 Mostly Cloudy BKN120 62.6 59 88% 30.13 0.0
19 00:35 Calm 10.00 Overcast OVC120 62.6 60.8 94% 30.13 0.0
19 00:15 Calm 10.00 Overcast FEW050 OVC120 62.6 60.8 94% 30.14 0.0
18 23:55 Calm 10.00 Mostly Cloudy BKN120 64.4 59 83% 30.13 0.0
18 23:35 Calm 10.00 Mostly Cloudy BKN120 62.6 60.8 94% 30.14 0.0
18 23:15 Calm 10.00 Mostly Cloudy FEW046 BKN120 62.6 60.8 94% 30.14 0.0
18 22:55 Calm 10.00 Partly Cloudy SCT047 SCT120 62.6 62.6 100% 30.14 0.0
18 22:35 Calm 10.00 Partly Cloudy FEW043 SCT049 SCT055 64.4 62.6 94% 30.14 0.0
18 22:15 Calm 10.00 Partly Cloudy FEW036 FEW042 SCT049 64.4 60.8 88% 30.14 0.0
18 21:55 Calm 10.00 A Few Clouds FEW050 FEW120 66.2 60.8 83% 30.14 0.0
18 21:35 S 3 10.00 Fair CLR 69.8 57.2 64% 30.14 0.0
18 21:15 S 5 10.00 Fair CLR 69.8 57.2 64% 30.14 0.0
18 20:55 S 5 10.00 Fair CLR 71.6 57.2 61% 30.13 0.0
18 20:35 S 5 10.00 A Few Clouds FEW060 73.4 57.2 57% 30.14 0.0
18 20:15 S 3 10.00 NULL NULL 73.4 57.2 57% 30.14 0.0
18 19:35 W 5 10.00 A Few Clouds FEW060 75.2 53.6 47% 78 30.15 0.0
18 19:15 SW 8 10.00 Fair CLR 77 53.6 44% 78 30.15 0.0
18 18:55 W 6 10.00 Fair CLR 77 53.6 44% 78 30.15 0.0
18 18:35 W 7 10.00 A Few Clouds FEW055 77 53.6 44% 78 30.16 0.0
18 18:15 SW 7 10.00 A Few Clouds FEW055 77 55.4 47% 79 30.16 0.0
18 17:55 W 6 G 12 10.00 Fair CLR 77 53.6 44% 78 30.17 0.0
18 17:35 SW 6 10.00 A Few Clouds FEW055 FEW065 77 53.6 44% 78 30.17 0.0
18 17:15 SW 10 10.00 Partly Cloudy SCT055 SCT065 78.8 55.4 45% 79 30.17 0.0
18 16:55 W 5 G 12 10.00 Partly Cloudy SCT055 77 53.6 44% 78 30.18 0.0
18 16:35 S 6 G 12 10.00 Mostly Cloudy BKN055 77 51.8 42% 78 30.18 0.0
18 16:15 SW 9 10.00 Fair CLR 77 53.6 44% 78 30.18 0.0
18 15:55 SW 9 10.00 Fair CLR 77 55.4 47% 79 30.18 0.0
18 15:35 SW 6 10.00 A Few Clouds FEW060 77 55.4 47% 79 30.19 0.0
18 15:15 Vrbl 6 10.00 Partly Cloudy SCT060 77 53.6 44% 78 30.19 0.0
18 14:55 Vrbl 5 G 13 10.00 Fair CLR 77 53.6 44% 78 30.2 0.0
18 14:35 W 7 10.00 Fair CLR 75.2 55.4 50% 78 30.2 0.0
18 14:15 W 7 10.00 A Few Clouds FEW060 75.2 55.4 50% 78 30.2 0.0
18 13:55 Calm 10.00 A Few Clouds FEW050 75.2 53.6 47% 78 30.21 0.0
18 13:35 W 7 10.00 Mostly Cloudy SCT050 BKN060 75.2 55.4 50% 78 30.21 0.0
18 13:15 Vrbl 6 10.00 Partly Cloudy SCT050 SCT055 75.2 53.6 47% 78 30.21 0.0
18 12:55 Calm 10.00 A Few Clouds FEW055 75.2 53.6 47% 78 30.22 0.0
18 12:35 SW 8 10.00 A Few Clouds FEW050 FEW055 75.2 53.6 47% 78 30.22 0.0
18 12:15 S 5 10.00 A Few Clouds FEW050 FEW055 75.2 53.6 47% 78 30.22 0.0
18 11:55 Vrbl 6 10.00 Partly Cloudy SCT050 SCT055 73.4 53.6 50% 30.22 0.0
18 11:35 S 5 10.00 A Few Clouds FEW048 73.4 51.8 47% 30.23 0.0
18 11:15 S 3 10.00 A Few Clouds FEW049 73.4 53.6 50% 30.23 0.0
18 10:55 S 3 10.00 Fair CLR 73.4 53.6 50% 30.23 0.0
18 10:35 Calm 10.00 Fair CLR 73.4 53.6 50% 30.23 0.0
18 10:15 Calm 10.00 Fair CLR 71.6 53.6 53% 30.23 0.0
18 09:55 SW 5 10.00 Fair CLR 71.6 53.6 53% 30.23 0.0
18 09:35 Calm 10.00 Fair CLR 71.6 55.4 57% 30.23 0.0
18 09:15 SW 6 10.00 Fair CLR 69.8 55.4 60% 30.23 0.0
18 08:55 Calm 10.00 Fair CLR 69.8 55.4 60% 30.23 0.0
18 08:35 Calm 10.00 Fair CLR 68 59 73% 30.24 0.0
18 08:15 Calm 10.00 Fair CLR 66.2 60.8 83% 30.24 0.0
18 07:55 Calm 10.00 Fair CLR 62.6 62.6 100% 30.24 0.0
18 07:35 Calm 10.00 Fair CLR 60.8 60.8 100% 30.24 0.0
18 07:15 Calm 10.00 Fair CLR 59 59 100% 30.23 0.0
18 06:55 Calm 10.00 Fair CLR 57.2 57.2 100% 30.23 0.0
18 06:35 Calm 10.00 Fair CLR 55.4 55.4 100% 30.23 0.0
18 06:15 Calm 10.00 A Few Clouds FEW060 53.6 53.6 100% 30.23 0.0
18 05:55 Calm 10.00 Fair CLR 55.4 55.4 100% 30.23 0.0
18 04:55 Calm 10.00 Overcast OVC070 55.4 55.4 100% 30.23 0.0
18 04:35 Calm 10.00 Overcast FEW037 FEW047 OVC070 55.4 55.4 100% 30.23 0.0
18 04:20 Calm 10.00 Mostly Cloudy SCT037 BKN044 BKN050 55.4 55.4 100% 30.22 0.0
18 04:10 Calm 10.00 Mostly Cloudy SCT036 SCT042 BKN080 55.4 55.4 100% 30.22 0.0
18 03:55 Calm 10.00 Overcast FEW046 FEW055 OVC080 55.4 55.4 100% 30.21 0.0
17 22:15 Calm 10.00 Partly Cloudy FEW043 SCT050 SCT070 60.8 59 94% 30.18 0.0
17 21:55 Calm 10.00 Fair CLR 62.6 59 88% 30.18 0.0
17 21:35 Calm 10.00 Fair CLR 62.6 59 88% 30.17 0.0
17 21:15 Calm 10.00 Fair CLR 64.4 57.2 78% 30.17 0.0
17 20:55 Calm 10.00 Fair CLR 66.2 59 78% 30.16 0.0
17 20:35 Calm 10.00 Fair CLR 68 57.2 69% 30.16 0.0
17 20:15 Calm 10.00 Fair CLR 69.8 53.6 57% 30.16 0.0
17 19:55 N 5 10.00 Fair CLR 71.6 51.8 50% 30.16 0.0
17 19:35 N 5 10.00 Fair CLR 71.6 51.8 50% 30.16 0.0
17 19:15 N 7 10.00 Fair CLR 71.6 51.8 50% 30.16 0.0
17 18:55 NE 7 10.00 Fair CLR 71.6 51.8 50% 30.16 0.0
17 18:35 NE 6 10.00 A Few Clouds FEW050 FEW060 71.6 51.8 50% 30.16 0.0
17 18:15 NE 8 10.00 Partly Cloudy SCT055 SCT065 73.4 51.8 47% 30.16 0.0
17 17:55 NW 9 10.00 Mostly Cloudy FEW050 BKN060 73.4 51.8 47% 30.16 0.0
17 17:35 N 8 10.00 Mostly Cloudy BKN060 73.4 50 44% 30.16 0.0
17 17:15 N 6 G 13 10.00 Partly Cloudy FEW050 SCT060 71.6 50 47% 30.16 0.0
17 16:55 N 6 G 16 10.00 Mostly Cloudy SCT050 BKN055 71.6 51.8 50% 30.16 0.0
17 16:35 N 8 10.00 Mostly Cloudy SCT050 BKN055 71.6 51.8 50% 30.16 0.0
17 16:15 N 12 10.00 A Few Clouds FEW050 73.4 51.8 47% 30.17 0.0
17 15:55 N 6 G 16 10.00 A Few Clouds FEW050 73.4 51.8 47% 30.17 0.0
17 15:35 NE 13 10.00 Partly Cloudy SCT050 SCT055 73.4 51.8 47% 30.17 0.0
17 15:15 N 12 10.00 Mostly Cloudy BKN050 71.6 50 47% 30.17 0.0
17 14:55 Vrbl 6 G 14 10.00 Mostly Cloudy BKN050 BKN055 71.6 50 47% 30.17 0.0
17 14:35 N 12 10.00 Partly Cloudy SCT050 SCT055 71.6 50 47% 30.17 0.0
17 14:15 Vrbl 7 G 20 10.00 A Few Clouds FEW050 71.6 50 47% 30.16 0.0
17 13:55 Vrbl 7 G 16 10.00 A Few Clouds FEW048 71.6 50 47% 30.16 0.0
Date Time (cdt) Wind (mph) Vis. (mi.) Weather Sky Cond. Air Dwpt Max. Min. Relative Humidity Wind Chill (°F) Heat Index (°F) altimeter (in) sea level (mb) 1 hr 3 hr 6 hr
6 hour
Temperature (ºF) Pressure Precipitation (in)